User: anonymous   Login
Location: Unspecified
(42.3650°N, 71.1030°W)
Time: 21:32:01
(UTC+00:00)
Language:

deb Explorer IX - Orbit

View from above orbital plane
View from above orbital plane
View from above satellite
View from above satellite

Ground track
Ground track

The orbit data is extracted from the following two-line orbital elements,

1 00085U 61004C   24176.60300713  .00011974  00000-0  15674-2 0  9991
2 00085  38.7408 326.3512 0263334   8.3367 352.1649 14.58729390141470
Epoch (UTC): 24 June 2024 14:28:19
Eccentricity: 0.0263334
inclination: 38.7408°
perigee height: 511 km
apogee height: 883 km
right ascension of ascending node: 326.3512°
argument of perigee: 8.3367°
revolutions per day: 14.58729390
mean anomaly at epoch: 352.1649°
orbit number at epoch: 14147

The dashed part of the orbit path shows where the satellite is in the earth's shadow,  

DLR